Weather reports worldwide

Advertisment
Lugo/Rozas, Spain (8008): temperature & dewpoint: 09.10.2019 19:00:00 - 15.10.2019 19:00:00 (CEST)Lugo/Rozas, Spain (8008): wind speed: 09.10.2019 19:00:00 - 15.10.2019 19:00:00 (CEST)Lugo/Rozas, Spain (8008): wind direction: 09.10.2019 19:00:00 - 15.10.2019 19:00:00 (CEST)Lugo/Rozas, Spain (8008): reduced air pressure: 09.10.2019 19:00:00 - 15.10.2019 19:00:00 (CEST)Lugo/Rozas, Spain (8008): visibility: 09.10.2019 19:00:00 - 15.10.2019 19:00:00 (CEST)Lugo/Rozas, Spain (8008): precipitation: 09.10.2019 19:00:00 - 15.10.2019 19:00:00 (CEST)
Date & Time tt [°C] td [°C] ff [km/h] ff [kn] dd ppp [hPa] vv [km] rr [mm]
15.10.2019 19:00:00 12,5 9,9 9 5 SSW 1016,8 20 0,2
15.10.2019 18:00:00 12,6 10,0 11 6 SSW 1017,0 17 0,0
15.10.2019 17:00:00 13,1 10,1 11 6 SSW 1017,1 17 -
15.10.2019 16:00:00 13,7 10,1 13 7 SSW 1017,3 20 0,0
15.10.2019 15:00:00 13,2 10,2 13 7 SSW 1017,9 14 0,0
15.10.2019 14:00:00 12,8 9,8 9 5 SSW 1018,4 20 -
15.10.2019 13:00:00 12,9 9,9 13 7 SSW 1018,6 17 0,0
15.10.2019 12:00:00 12,2 10,1 11 6 SSW 1019,1 17 0,0
15.10.2019 11:00:00 10,1 8,7 8 4 SW 1019,7 15 -
15.10.2019 10:00:00 9,4 8,3 8 4 SSW 1019,5 15 0,0
15.10.2019 09:00:00 8,9 7,7 9 5 SSW 1019,3 16 0,0
15.10.2019 08:00:00 8,3 7,5 9 5 S 1019,3 20 -
15.10.2019 07:00:00 7,8 7,2 8 4 SSW 1019,4 14 0,0
15.10.2019 06:00:00 7,9 7,1 8 4 SSW 1019,2 11 0,0
15.10.2019 05:00:00 8,0 7,4 8 4 SW 1019,0 13 -
15.10.2019 04:00:00 8,1 7,7 8 4 SW 1019,1 13 0,0
15.10.2019 03:00:00 8,4 7,8 9 5 SW 1019,0 16 0,0
15.10.2019 02:00:00 8,5 7,9 9 5 SW 1018,9 17 -
15.10.2019 01:00:00 8,5 7,9 9 5 SW 1018,8 18 0,8
15.10.2019 00:00:00 8,3 7,5 8 4 SW 1018,4 12 1,0
14.10.2019 23:00:00 7,6 7,0 9 5 WSW 1018,3 6 -
14.10.2019 22:00:00 8,7 7,9 9 5 SW 1017,3 10 0,2
14.10.2019 21:00:00 8,9 8,1 5 3 W 1016,6 3,7 5,0
14.10.2019 20:00:00 9,4 8,2 9 5 SW 1015,3 12 -
14.10.2019 19:00:00 9,7 8,3 9 5 WSW 1014,5 10 0,6
14.10.2019 18:00:00 10,9 8,1 13 7 WSW 1013,3 13 0,4
14.10.2019 17:00:00 9,9 7,7 18 10 W 1013,2 - -
14.10.2019 16:00:00 11,8 9,2 13 7 WSW 1011,4 12 0,4
14.10.2019 15:00:00 11,2 9,6 13 7 WSW 1011,2 13 0,8
14.10.2019 14:00:00 11,4 9,8 15 8 WSW 1010,5 15 -
14.10.2019 13:00:00 11,2 10,1 8 4 SSW 1009,8 7 0,0
14.10.2019 12:00:00 10,5 9,6 8 4 S 1009,3 16 0,4
14.10.2019 11:00:00 10,2 9,4 9 5 SSW 1008,8 15 -
14.10.2019 10:00:00 10,3 9,1 8 4 SSW 1008,0 4,4 0,6
14.10.2019 09:00:00 10,5 8,4 9 5 S 1006,9 13 0,0
14.10.2019 08:00:00 10,3 8,9 8 4 SSW 1006,3 20 -
14.10.2019 07:00:00 10,4 9,3 5 3 SSW 1007,2 19 0,0
14.10.2019 06:00:00 10,3 9,7 13 7 SSE 1007,7 18 2,0
14.10.2019 05:00:00 10,3 9,7 11 6 S 1008,2 11 -
14.10.2019 04:00:00 10,4 9,8 5 3 S 1008,9 8 2,0
14.10.2019 03:00:00 10,5 9,9 5 3 S 1009,6 12 2,0
14.10.2019 02:00:00 10,6 10,1 2 1 SSE 1009,9 6 -
14.10.2019 01:00:00 10,8 10,3 4 2 S 1010,8 2,8 3,0
14.10.2019 00:00:00 11,0 10,5 5 3 SE 1010,9 - 1,0
13.10.2019 23:00:00 11,3 10,7 2 1 N 1011,3 4,7 -
13.10.2019 22:00:00 12,1 11,3 5 3 WNW 1010,4 3,1 5,0
13.10.2019 21:00:00 14,4 13,8 4 2 WSW 1009,7 3,0 3,0
13.10.2019 20:00:00 14,6 14,0 4 2 SSW 1009,7 3,5 -
13.10.2019 19:00:00 14,9 14,3 5 3 SW 1009,9 10 2,0
13.10.2019 18:00:00 14,9 14,1 9 5 WSW 1010,4 3,6 3,0
13.10.2019 17:00:00 15,4 14,6 2 1 SSE 1010,5 3,2 -
13.10.2019 16:00:00 15,6 14,3 4 2 W 1010,4 1,1 7,0
13.10.2019 15:00:00 16,3 14,8 5 3 SW 1010,4 8 0,6
13.10.2019 14:00:00 17,1 13,8 5 3 W 1010,7 20 -
13.10.2019 13:00:00 16,8 13,7 8 4 W 1011,1 20 0,0
13.10.2019 12:00:00 16,1 14,1 11 6 W 1011,0 19 0,0
13.10.2019 11:00:00 16,0 14,0 11 6 SW 1010,4 18 -
13.10.2019 10:00:00 15,1 13,5 13 7 SW 1009,5 16 0,0
13.10.2019 09:00:00 14,4 12,9 16 9 SW 1008,4 11 0,4
13.10.2019 08:00:00 14,7 12,7 15 8 SW 1007,8 9 -
13.10.2019 07:00:00 16,0 11,2 13 7 SSW 1006,5 19 0,0
13.10.2019 06:00:00 16,5 10,3 18 10 SSW 1006,6 20 0,0
13.10.2019 05:00:00 16,3 10,2 16 9 SSW 1006,4 20 -
13.10.2019 04:00:00 15,9 10,0 15 8 SSW 1007,3 20 0,0
13.10.2019 03:00:00 15,9 10,0 15 8 SSW 1007,8 19 0,0
13.10.2019 02:00:00 15,6 10,6 13 7 SSW 1008,3 19 -
13.10.2019 01:00:00 14,8 10,8 8 4 SSW 1009,5 19 0,0
13.10.2019 00:00:00 15,1 11,1 8 4 SW 1009,8 18 0,0
12.10.2019 23:00:00 16,0 11,4 9 5 SW 1009,8 19 -
12.10.2019 22:00:00 17,3 12,0 13 7 SW 1009,7 13 0,0
12.10.2019 21:00:00 17,9 12,1 9 5 SW 1009,5 13 0,0
12.10.2019 20:00:00 19,3 12,1 18 10 WSW 1008,9 0,9 -
12.10.2019 19:00:00 21,1 12,0 21 11 WSW 1008,1 1,5 0,0
12.10.2019 18:00:00 23,2 11,9 21 11 WSW 1007,6 2,6 0,0
12.10.2019 17:00:00 23,7 12,0 22 12 WSW 1007,6 2,0 -
12.10.2019 16:00:00 23,7 12,0 24 13 WSW 1008,1 2,3 0,0
12.10.2019 15:00:00 22,5 13,0 21 11 WSW 1009,1 3,8 0,0
12.10.2019 14:00:00 21,5 13,1 15 8 SW 1010,0 - -
12.10.2019 13:00:00 19,6 13,3 15 8 SW 1010,8 - 0,0
12.10.2019 12:00:00 18,1 13,2 13 7 SW 1011,6 7 0,0
12.10.2019 11:00:00 15,7 12,8 9 5 SW 1012,5 7 -
12.10.2019 10:00:00 13,5 12,4 2 1 WSW 1012,7 8 0,0
12.10.2019 09:00:00 10,9 10,9 5 3 SW 1012,7 5 0,0
12.10.2019 08:00:00 10,1 9,5 4 2 W 1012,8 2,5 -
12.10.2019 07:00:00 9,2 8,9 2 1 SW 1013,4 0,3 0,0
12.10.2019 06:00:00 10,1 9,9 4 2 S 1013,5 0,2 0,0
12.10.2019 05:00:00 10,6 10,6 2 1 W 1014,0 0,1 -
12.10.2019 04:00:00 10,2 10,0 2 1 WSW 1014,6 0,4 0,0
12.10.2019 03:00:00 9,5 8,9 4 2 S 1015,1 6 0,0
12.10.2019 02:00:00 10,4 9,2 2 1 W 1014,8 12 -
12.10.2019 01:00:00 11,1 10,2 4 2 S 1015,5 14 0,0
12.10.2019 00:00:00 12,2 10,6 4 2 SSE 1015,6 16 0,0
11.10.2019 23:00:00 13,2 11,3 4 2 S 1015,3 20 -
11.10.2019 22:00:00 14,6 11,7 2 1 S 1014,9 20 0,0
11.10.2019 21:00:00 17,0 12,5 4 2 SSE 1014,3 20 0,0
11.10.2019 20:00:00 20,8 12,5 4 2 WSW 1013,4 20 -
11.10.2019 19:00:00 23,8 11,5 9 5 W 1013,0 20 0,0
11.10.2019 18:00:00 25,8 10,4 16 9 WSW 1012,6 20 0,0
11.10.2019 17:00:00 26,5 10,6 13 7 SW 1012,6 20 -
11.10.2019 16:00:00 26,3 7,8 18 10 SW 1013,0 20 0,0
11.10.2019 15:00:00 25,1 9,0 15 8 SW 1013,9 20 0,0
11.10.2019 14:00:00 23,3 10,0 11 6 SW 1015,2 25 -
11.10.2019 13:00:00 16,9 12,6 4 2 NNE 1017,0 20 0,0
11.10.2019 12:00:00 10,1 9,5 4 2 NNE 1019,1 10 0,0
11.10.2019 11:00:00 7,9 7,6 4 2 NW 1020,0 0,2 -
11.10.2019 10:00:00 6,4 6,4 2 1 N 1020,0 0,2 0,0
11.10.2019 09:00:00 6,1 6,1 2 1 SSE 1019,9 0,1 0,0
11.10.2019 08:00:00 5,6 5,2 2 1 N 1019,8 0,2 -
11.10.2019 07:00:00 6,7 6,7 2 1 S 1019,3 0,7 0,0
11.10.2019 06:00:00 6,3 6,3 4 2 WSW 1019,7 0,1 0,0
11.10.2019 05:00:00 6,5 6,1 2 1 NNW 1019,7 4,2 -
11.10.2019 04:00:00 6,7 6,3 4 2 S 1020,0 3,2 0,0
11.10.2019 03:00:00 7,1 6,4 2 1 S 1020,4 - 0,0
11.10.2019 02:00:00 7,8 6,9 2 1 NW 1020,4 11 -
11.10.2019 01:00:00 8,2 7,3 0 0 N 1020,9 13 0,0
11.10.2019 00:00:00 9,0 7,8 2 1 WSW 1021,1 11 0,0
10.10.2019 23:00:00 10,0 8,9 0 0 N 1020,9 8 -
10.10.2019 22:00:00 11,2 9,8 4 2 S 1020,6 13 0,0
10.10.2019 21:00:00 13,2 10,4 2 1 WSW 1019,9 18 0,0
10.10.2019 20:00:00 15,3 11,1 4 2 NE 1019,5 20 -
10.10.2019 19:00:00 17,9 11,9 4 2 NE 1018,8 20 0,0
10.10.2019 18:00:00 20,0 12,2 5 3 NE 1018,7 20 0,0
10.10.2019 17:00:00 21,1 12,2 5 3 N 1019,0 20 -
10.10.2019 16:00:00 20,8 11,1 5 3 ENE 1019,5 20 0,0
10.10.2019 15:00:00 19,3 11,6 8 4 NW 1020,7 20 0,0
10.10.2019 14:00:00 17,4 11,9 4 2 N 1021,8 25 -
10.10.2019 13:00:00 13,4 10,7 4 2 N 1023,4 20 0,0
10.10.2019 12:00:00 9,8 9,0 4 2 NW 1024,6 18 0,0
10.10.2019 11:00:00 7,6 7,5 4 2 NW 1025,5 0,2 -
10.10.2019 10:00:00 6,2 5,9 2 1 SW 1025,7 1,9 0,0
10.10.2019 09:00:00 6,1 6,0 0 0 N 1025,1 0,3 0,2
10.10.2019 08:00:00 5,7 5,7 2 1 E 1025,0 0,1 -
10.10.2019 07:00:00 5,5 5,2 2 1 SSW 1024,9 0,2 0,0
10.10.2019 06:00:00 6,4 6,3 2 1 S 1024,7 1,2 0,0
10.10.2019 05:00:00 6,1 6,1 2 1 E 1025,3 0,3 -
10.10.2019 04:00:00 5,7 5,1 2 1 WNW 1025,6 9 0,0
10.10.2019 03:00:00 6,4 5,5 2 1 SSE 1025,4 8 0,0
10.10.2019 02:00:00 7,1 6,2 0 0 N 1025,5 9 -
10.10.2019 01:00:00 8,1 7,0 4 2 SSE 1025,5 10 0,0
10.10.2019 00:00:00 9,0 7,9 4 2 SE 1025,6 9 0,0
09.10.2019 23:00:00 10,2 8,6 2 1 W 1025,1 14 -
09.10.2019 22:00:00 11,4 9,6 4 2 WSW 1024,6 18 0,0
09.10.2019 21:00:00 11,6 9,0 2 1 WSW 1024,4 18 0,0
09.10.2019 20:00:00 14,3 9,7 4 2 WNW 1023,7 19 -
09.10.2019 19:00:00 16,0 9,0 5 3 NNW 1022,9 20 0,0

tt = temperature
td = dewpoint
ff = wind speed
dd = wind direction
ppp = reduced air pressure
vv = visibility
rr = precipitation

Next stations